Haines, AK

7:27 PM AKDT on October 20, 2017 (GMT -0800)
Haines

Weather History for PAHN - January, 2013

Change the Weather History Date:

Friday, January 4, 2013

  Actual Average Record
Temperature  
Mean Temperature 28 °F -  
Max Temperature 30 °F 26 °F 45 °F (2003)
Min Temperature 26 °F 19 °F -5 °F (1975)
Degree Days  
Heating Degree Days 37    
Moisture  
Dew Point 25 °F    
Average Humidity 92    
Maximum Humidity 96    
Minimum Humidity 85    
Precipitation  
Precipitation 0.04 in - - ()
Sea Level Pressure  
Sea Level Pressure 30.01 in    
Wind  
Wind Speed 9 mph (WNW)    
Max Wind Speed 18 mph    
Max Gust Speed -    
Visibility 6 miles    
Events Snow    
Averages and records for this station are not official NWS values.
T = Trace of Precipitation, MM = Missing Value Source: NWS Daily Summary

Daily Weather History Graph

Daily Weather History Graph

Search for Another Location

Airport or City:

Trip Planner

Search our weather history database for the weather conditions in past years. The results will help you decide how hot, cold, wet, or windy it might be!

Date:

Astronomy

Jan. 04, 2013 Rise Set
Actual Time 8:55 AM AKST 3:19 PM AKST
Civil Twilight 8:01 AM AKST 4:13 PM AKST
Nautical Twilight 7:07 AM AKST 5:07 PM AKST
Astronomical Twilight 6:17 AM AKST 5:57 PM AKST
Moon No Moon Rise 10:44 AM AKST (1/4)
Length of Visible Light 8h 11m
Length of Day
6h 23m
Waning Gibbous, 53% of the Moon is Illuminated
Jan 4
Waning Gibbous
Jan 4
Last Quarter
Jan 11
New
Jan 18
First Quarter
Jan 26
Full

Hourly Weather History & Observations

Time (AKST) Temp. Windchill Dew Point Humidity Pressure Visibility Wind Dir Wind Speed Gust Speed Precip Events Conditions
12:54 AM 26.1 °F 16.2 °F 24.1 °F 92% 29.83 in 1.2 mi WNW 10.4 mph - 0.01 in Snow Light Snow
1:54 AM 26.1 °F 16.8 °F 24.1 °F 92% 29.85 in 1.2 mi WNW 9.2 mph - 0.02 in Snow Light Snow
2:21 AM 26.6 °F 17.5 °F 24.8 °F 93% 29.86 in 1.8 mi WNW 9.2 mph - 0.01 in Snow Light Snow
2:38 AM 26.6 °F 18.2 °F 24.8 °F 93% 29.86 in 2.0 mi WNW 8.1 mph - 0.01 in Snow Light Snow
2:46 AM 26.6 °F 20.0 °F 24.8 °F 93% 29.87 in 2.5 mi WNW 5.8 mph - 0.01 in Snow Light Snow
2:54 AM 26.1 °F 20.5 °F 25.0 °F 96% 29.88 in 2.5 mi WNW 4.6 mph - 0.01 in Snow Light Snow
3:25 AM 26.6 °F 22.6 °F 24.8 °F 93% 29.88 in 3.0 mi WNW 3.5 mph - 0.00 in Snow Light Snow
3:54 AM 26.1 °F - 24.1 °F 92% 29.90 in 6.0 mi Calm Calm - 0.00 in Snow Light Snow
4:54 AM 27.0 °F - 25.0 °F 92% 29.92 in 8.0 mi Calm Calm - 0.00 in   Overcast
5:16 AM 26.6 °F - 24.8 °F 93% 29.92 in 4.0 mi Calm Calm - 0.00 in Snow Light Snow
5:43 AM 26.6 °F 21.2 °F 24.8 °F 93% 29.93 in 4.0 mi WNW 4.6 mph - 0.00 in Snow Light Snow
5:54 AM 27.0 °F 23.0 °F 25.0 °F 92% 29.94 in 5.0 mi West 3.5 mph - 0.00 in Snow Light Snow
6:54 AM 26.1 °F 16.8 °F 24.1 °F 92% 29.97 in 8.0 mi WNW 9.2 mph - 0.00 in   Overcast
7:47 AM 26.6 °F 20.0 °F 24.8 °F 93% 29.98 in 10.0 mi West 5.8 mph - 0.00 in   Overcast
7:54 AM 26.1 °F 19.4 °F 25.0 °F 96% 29.99 in 10.0 mi WNW 5.8 mph - 0.00 in   Overcast
8:43 AM 26.6 °F 16.2 °F 24.8 °F 93% 30.00 in 2.0 mi WNW 11.5 mph - 0.00 in Snow Light Snow
8:50 AM 26.6 °F 16.2 °F 24.8 °F 93% 30.01 in 1.5 mi WNW 11.5 mph - 0.00 in Snow Light Snow
8:54 AM 27.0 °F 16.7 °F 25.0 °F 92% 30.02 in 1.5 mi WNW 11.5 mph - 0.00 in Snow Light Snow
9:54 AM 28.0 °F 17.5 °F 26.1 °F 92% 30.05 in 1.5 mi WNW 12.7 mph - 0.00 in Snow Light Snow
10:07 AM 26.6 °F 15.7 °F 24.8 °F 93% 30.05 in 1.8 mi WNW 12.7 mph - 0.00 in Snow Light Snow
10:54 AM 28.0 °F 17.5 °F 25.0 °F 88% 30.09 in 1.0 mi WNW 12.7 mph - 0.00 in Snow Light Snow
11:22 AM 28.4 °F 18.5 °F 26.6 °F 93% 30.09 in 0.8 mi WNW 11.5 mph - 0.00 in Snow Light Snow
11:30 AM 28.4 °F 17.5 °F 26.6 °F 93% 30.09 in 1.0 mi WNW 13.8 mph - 0.00 in Snow Light Snow
11:54 AM 27.0 °F 16.7 °F 25.0 °F 92% 30.10 in 1.0 mi WNW 11.5 mph - 0.00 in Snow Light Snow
12:54 PM 28.9 °F 19.2 °F 26.1 °F 89% 30.11 in 1.5 mi WNW 11.5 mph - 0.00 in Snow Light Snow
1:02 PM 28.4 °F 18.5 °F 26.6 °F 93% 30.09 in 3.0 mi WNW 11.5 mph - 0.00 in Snow Light Snow
1:54 PM 27.0 °F 16.1 °F 25.0 °F 92% 30.10 in 10.0 mi WNW 12.7 mph - 0.00 in   Overcast
2:31 PM 28.4 °F 18.5 °F 24.8 °F 86% 30.09 in 10.0 mi WNW 11.5 mph - N/A   Overcast
2:54 PM 28.9 °F 19.2 °F 26.1 °F 89% 30.10 in 10.0 mi WNW 11.5 mph - N/A   Overcast
3:08 PM 28.4 °F 19.1 °F 26.6 °F 93% 30.09 in 10.0 mi WNW 10.4 mph - N/A   Overcast
3:54 PM 30.0 °F 21.1 °F 26.1 °F 85% 30.10 in 10.0 mi WNW 10.4 mph - N/A   Overcast
4:54 PM 30.0 °F 21.7 °F 27.0 °F 88% 30.10 in 10.0 mi WNW 9.2 mph - 0.00 in   Overcast
5:54 PM 28.0 °F 18.6 °F 26.1 °F 92% 30.10 in 10.0 mi WNW 10.4 mph - N/A   Overcast
6:54 PM 28.0 °F 18.1 °F 26.1 °F 92% 30.08 in 10.0 mi WNW 11.5 mph - N/A   Overcast
7:54 PM 28.0 °F 18.1 °F 25.0 °F 88% 30.06 in 10.0 mi WNW 11.5 mph - N/A   Overcast
8:40 PM 26.6 °F 13.8 °F 24.8 °F 93% 30.04 in 10.0 mi WNW 17.3 mph - N/A   Partly Cloudy
8:54 PM 27.0 °F 15.2 °F 25.0 °F 92% 30.05 in 10.0 mi WNW 15.0 mph - N/A   Clear
9:54 PM 28.0 °F 16.5 °F 25.0 °F 88% 30.03 in 10.0 mi WNW 15.0 mph - N/A   Clear
10:54 PM 28.0 °F 17.0 °F 25.0 °F 88% 30.01 in 10.0 mi WNW 13.8 mph - N/A   Clear
11:54 PM 26.1 °F 12.7 °F 23.0 °F 88% 29.99 in 10.0 mi WNW 18.4 mph - N/A   Clear